Regional Weather Roundup
Issued by NWS Grand Forks, ND

Home | Current Version | Previous Version | Text Only | Print | Product List | Glossary On
Versions: 1 2 3 4 5 6 7 8 9 10 11 12 13 14 15 16 17 18 19 20 21 22 23 24 25 26 27 28 29 30 31 32 33 34 35 36 37 38 39 40 41 42 43 44 45 46 47 48 49 50
000
ASUS43 KFGF 280231
RWRFGF
PRAIRIE TO PINES  WEATHER ROUNDUP
NATIONAL WEATHER SERVICE EASTERN NORTH DAKOTA/GRAND FORKS ND
900 PM CDT WED MAY 27 2015

 **SATELLITE DATA USED TO AUGMENT SKY COVER AT AUTOMATED STATIONS**
 *****  WEATHER ACROSS EASTERN NORTH DAKOTA  *****

CITY           SKY/WX    TMP DP  RH WIND       PRES   REMARKS
GRAND FORKS    CLOUDY    67  51  56 NE7       29.96R
GRAND FRKS AFB CLOUDY    67  50  54 NE7       29.97R
GRAND FRKS NWS   N/A     66 N/A N/A NE2         N/A
DEVILS LAKE    CLOUDY    66  50  55 E9        29.94F
FARGO          MOCLDY    71  55  56 NE6       29.96R
WAHPETON ARPT  MOCLDY    73  50  43 SE5       29.96R
$$

 ***** WEATHER ACROSS CENTRAL AND WESTERN NORTH DAKOTA  *****

CITY           SKY/WX    TMP DP  RH WIND       PRES   REMARKS
BISMARCK       CLOUDY    72  54  53 S7        29.93R
MINOT          CLOUDY    65  52  62 NE8       29.91S
JAMESTOWN      MOCLDY    67  54  63 E18G25    29.95R
MINOT AFB      CLOUDY    64  57  77 SW17G23   29.92R
GARRISON         N/A     60  57  89 NW13      29.94S
WILLISTON      CLOUDY    63  53  70 SE5       29.89F
DICKINSON      CLOUDY    57  55  93 E10       29.91R
HETTINGER      CLOUDY    58  55  90 E9        29.93F
$$

 *****  OTHER AIRPORT OBSERVATIONS IN OUR AREA  *****

CITY           SKY/WX    TMP DP  RH WIND       PRES   REMARKS
WALHALLA         N/A     64  41  42 MISG      30.00S
GRAFTON AIRPOR FAIR      66  46  48 N8        29.98S
VALLEY CITY AR LGT RAIN  63  63 100 E10G16    29.98F
CANDO          FAIR      66  48  52 E13       29.96F
CAVALIER APRT  FAIR      64  41  42 N5        30.00R
GWINNER        NOT AVBL
SHEYENNE NWR     N/A     73  54  50 N7        29.95S
ROLLA          FAIR      64  45  48 E10       29.99R
 ***** THE ABOVE OBSERVATIONS ARE NON NWS ARE NOT QUALITY
       CONTROLLED AND MAY MIS-REPORT RAIN FOR SNOW...
$$

  *****  WEATHER ACROSS NORTHERN MINNESOTA  *****

CITY           SKY/WX    TMP DP  RH WIND       PRES   REMARKS
FLAG ISLAND    CLEAR     63  46  55 CALM      30.00R
WARROAD        CLEAR     61  54  77 NE7       30.01S
ROSEAU         CLEAR     63  48  59 E6        30.00R
HALLOCK        PTCLDY    64  46  52 N7        29.99R
THF RVR FALLS  MOCLDY    70  48  46 N3        29.99R
BAUDETTE       CLEAR     62  47  57 N5        29.99S
WASKISH        CLEAR     63  48  59 CALM      30.01R
CROOKSTON      MOCLDY    70  52  52 NE3       29.99R
STEPHEN NDAWN    N/A     64  46  52 N5          N/A
GREENBUSH NDAW   N/A     64  54  68 N3          N/A
$$
  *****  WEATHER ACROSS CENTRAL AND WEST MINNESOTA  *****

CITY           SKY/WX    TMP DP  RH WIND       PRES   REMARKS
FOSSTON        MOCLDY    64  48  55 CALM      30.00R
BEMIDJI        PTCLDY    64  53  67 NE3       29.99R
PARK RAPIDS    PTCLDY    72  52  49 NW3       29.98R
ELBOW LAKE     FAIR      71  58  62 SE3       29.98R
WADENA         MOCLDY    66  52  59 CALM      29.99R
DETROIT LAKES  MOCLDY    70  52  52 CALM      30.01R
MOORHEAD       MOCLDY    72  54  53 NE5       29.97R
FERGUS FALLS   MOCLDY    73  50  43 E3        29.97R
MORRIS MN      MOCLDY    73  54  49 E5        29.97R
STAPLES        PTCLDY    66  54  63 CALM      29.99R
$$
  *****  WEATHER ELSEWHERE ACROSS MINNESOTA  *****

CITY           SKY/WX    TMP DP  RH WIND       PRES   REMARKS
DULUTH         PTCLDY    73  47  39 NW5       29.98R
INTRNTL FALLS  CLEAR     65  45  48 NE3       30.00R
ELY            NOT AVBL
CLOQUET        CLEAR     70  46  43 W5        29.99R
WHEATON        MOCLDY    68  57  68 SE6       29.98R
BRAINERD       PTCLDY    68  54  60 CALM      29.98R
HIBBING        CLEAR     66  47  50 N6        29.99R
ALEXANDRIA     MOCLDY    72  55  55 CALM      30.00R
SAINT CLOUD    PTCLDY    70  55  59 CALM      29.97R
MINNEAPOLIS    PTCLDY    79  51  37 CALM      29.98R
$$

  *****  WEATHER ACROSS SOUTH DAKOTA  *****

CITY           SKY/WX    TMP DP  RH WIND       PRES   REMARKS
SIOUX FALLS    PTCLDY    71  50  47 S7        30.00R
BROOKINGS      PTCLDY    73  50  43 S5        30.01S
WATERTOWN      PTCLDY    70  53  54 SW6       29.99R
HURON            N/A    N/A N/A N/A MISG      29.96R
SISSETON         N/A     74  54  49 SE5       29.95F
ABERDEEN       CLOUDY    70  56  61 S7        29.95R
MITCHELL       CLOUDY    74  55  51 S7        29.97S
PIERRE         CLOUDY    71  50  47 SE12      29.91R
MOBRIDGE       LGT RAIN  67  58  72 VRB5      29.91S
RAPID CITY     MOCLDY    66  54  65 S6        29.90S
$$

  *****  SOME WEATHER IN NEARBY STATES *****

CITY           SKY/WX    TMP DP  RH WIND       PRES   REMARKS
GLASGOW MT     MOCLDY    68  55  63 CALM      29.87R
GREAT FALLS MT MOCLDY    63  48  58 W3        29.96S
CHEYENNE WY    CLOUDY    60  47  61 SE6       30.08R
SCOTTSBLUFF NE CLEAR     64  56  75 SE12      29.97S
OMAHA NE       MOCLDY    71  55  56 SE8       30.03R
DES MOINES IA  PTCLDY    75  58  55 S6        30.04S
DAVENPORT IA   CLEAR     70  60  70 S5        30.07R
CHICAGO IL     CLEAR     67  54  63 CALM      30.09R
EAU CLAIRE WI  CLEAR     69  59  70 CALM      29.99R
LA CROSSE WI   CLEAR     72  60  66 S6        30.00R
$$

  *****  SOME NATIONAL WEATHER *****

CITY           SKY/WX    TMP DP  RH WIND       PRES   REMARKS
LA GUARDIA NY  LGT RAIN  70  63  78 S9        30.15R
RALEIGH NC     CLOUDY    73  70  90 S5        30.21S
ATLANTA GA     CLOUDY    77  65  66 CALM      30.20R
NEW ORLEANS LA MOCLDY    77  68  73 CALM      30.09R
OKLAHOMA CITY  CLOUDY    70  65  84 SE6       30.01S
ALBUQUERQUE NM CLOUDY    76  33  21 CALM      30.05R
SALT LAKE CITY CLOUDY    60  48  64 NW31G43   30.07R THUNDER
LOS ANGELES CA PTCLDY    62  55  77 W10       29.97R
BOISE ID       MOSUNNY   71  39  31 NW12      29.96R
SEATTLE WA     MOSUNNY   74  54  49 W5        30.02S
$$

*** WEATHER ACROSS MANITOBA...SASKATCHEWAN AND ONTARIO ***
                ***ONTARIO***

CITY           SKY/WX    TMP DP  RH WIND       PRES   REMARKS
GERALDTON      MOCLDY    46  37  71 NE6       30.11R
THUNDER BAY    PTCLDY    59  43  55 NE9       30.03R
SIOUX LOOKOUT  PTCLDY    55  39  54 NE2       30.06
TORONTO        CLOUDY    70  59  68 SW14G22   29.96S
BIG TROUT LK   CLEAR     39  30  70 SW3       30.14R
PICKLE LAKE    PTCLDY    50  27  40 NE6       30.10R
DRYDEN         CLEAR     57  43  58 NE8       30.04R
KENORA         PTCLDY    59  45  58 NE5       30.03R
$$
                *** MANITOBA***

CITY           SKY/WX    TMP DP  RH WIND       PRES   REMARKS
BRANDON        MOCLDY    59  37  44 E15       30.00F
DAUPHIN        CLEAR     55  30  38 E8        30.03S
ISLAND LAKE    PTCLDY    50  25  37 S6        30.12S
PILOT MOUND      N/A     63  43  48 E9          N/A
THE PAS        PTCLDY    54  30  40 SE12      30.05S
THOMPSON       CLOUDY    52  25  35 E6        30.07F
WINNIPEG       MOCLDY    59  41  51 NE8       30.02S
LYNN LAKE      CLOUDY    52  32  46 SE6       29.96F
CHURCHILL      CLOUDY    30  25  80 E10       30.26R WCI  21
GILLAM         MOCLDY    39  27  60 E6        30.18R
$$
                ***SASKATCHEWAN***

CITY           SKY/WX    TMP DP  RH WIND       PRES   REMARKS
ESTEVAN        LGT RAIN  61  55  82 N8        29.94R
KINDERSLEY     PTCLDY    68  46  45 E12       29.91S
LLOYDMINSTER   PTSUNNY   68  48  49 E8        29.87F
PRINCE ALBERT  CLOUDY    63  36  36 VRB2      29.94S
REGINA         MOCLDY    68  48  49 SE9       29.93S
YORKTON        CLEAR     61  37  41 E12       29.98R
N. BATTLEFORD  CLEAR     68  39  34 SE12      29.91F
LA RONGE       PTCLDY    61  36  39 SE9       29.87F
SASKATOON      MOCLDY    64  41  42 NE5       29.95S
SWIFT CURRENT  MOCLDY    59  48  67 S8        29.93F
$$
NOTE: THESE ARE AUTOMATED STATIONS WITH LIMITED QUALITY CONTROL
      "FAIR" INDICATES FEW OR NO CLOUDS BELOW 12,000 FEET WITH NO
      SIGNIFICANT WEATHER AND/OR OBSTRUCTIONS TO VISIBILITY.
      SKY/WX - SKY CONDITION AND SIGNIFICANT WEATHER.
      TMP - AIR TEMPERATURE.    DP   - DEWPOINT TEMPERATURE.
      RH  - RELATIVE HUMIDITY.  PRES - PRESSURE.
      HX  - HEAT INDEX.         WCI  - WIND CHILL INDEX.
$



USA.gov is the U.S. government's official web portal to all federal, state and local government web resources and services.